Terminal Aerodrome Forecast
Issued by NWS

Home | Current Version | Previous Version | Text Only | Print | Product List | Glossary On
Versions: 1 2 3 4 5 6 7 8 9 10 11 12
000
FTUS46 KSGX 041731
TAFPSP
TAF
KPSP 041731Z 0418/0518 VRB05KT P6SM FEW200
     FM042300 32012G22KT P6SM FEW200
     FM050700 32007KT P6SM SKC=

USA.gov is the U.S. government's official web portal to all federal, state and local government web resources and services.